Вернуться в каталог

COSMOS 1556

GLONASS

АктивенНавигацияMEO
NORAD 14979·PAYLOAD·🇷🇺 Russia

Запущен May 19, 1984 с Baikonur Cosmodrome

Loading…

Ближайшие Пролёты (ближайшие 24 часа)

TLE

СвежийSource: Space-Track

Эпоха: Sep 11, 2026, 18:58 UTC

1 14979U 84047C   26254.79066228 -.00000063  00000-0  00000-0 0  9992
2 14979  66.3794 326.9351 0010444 193.9749 145.9560  2.12912540328932

Отслеживайте COSMOS 1556 в реальном времени с AllMySat

Download on the App Store